Voltar ao catálogo

ANTIE 03

AtivoCiênciaSSO
NORAD 69541·PAYLOAD·🇨🇳 China
Este nome de satélite ainda não foi confirmado por fontes oficiais.

Lançado Jun 15, 2026 de Jiuquan Satellite Launch Center

Loading…

Próximas Passagens (próximas 24 horas)

TLE

AtualizadoSource: Space-Track

Época: Sep 14, 2026, 03:12 UTC

1 69541U 26134D   26257.13335100  .00004114  00000-0  26189-3 0  9998
2 69541  97.6959 327.6414 0019497 332.2350  27.7836 15.09195004 13727

Acompanhe ANTIE 03 em tempo real com AllMySat

Download on the App Store